Observer details:
568 Mauna Kea.  Observers S. S. Sheppard, D. C. Jewitt, J. Kleyna.  Measurer
    S. S. Sheppard.  3.6-m Canada-France-Hawaii Telescope + CCD, 2.2-m
    University of Hawaii reflector + CCD.

Orbital elements:
S/2001 J 1
Epoch 2002 May 6.0 TT = JDT 2452400.5                   MPC
M 168.91620              (2000.0)            P               Q
n   0.50659111     Peri.   65.92468     -0.79915114     -0.37856424
a   0.1534619      Node   271.12475     -0.55836110     +0.75522614
e   0.5079927      Incl.  152.15738     +0.22268887     +0.53509120
P   1.95           H   15.4           P/d   710.63
Residuals in seconds of arc
011210 568  0.0   0.1-    011218 568  0.0   0.4+    020210 568  0.2+  0.2+
011210 568  0.2+  0.2-    020108 568  0.1-  0.3-    020210 568  0.4-  0.1+
011210 568  0.2+  0.1+    020108 568  0.3-  0.4-
011218 568  0.7-  0.3+    020115 568  0.7+  0.1-

S/2001 J 2
Epoch 2002 May 6.0 TT = JDT 2452400.5                   MPC
M  24.60167              (2000.0)            P               Q
n   0.56601959     Peri.   91.38618     -0.75459802     +0.46272990
a   0.1425229      Node   243.61888     +0.16164483     +0.81826296
e   0.3167938      Incl.  148.71196     +0.63596602     +0.34106711
P   1.74           H   15.8           P/d   636.02
Residuals in seconds of arc
011211 568  0.0   0.0     011218 568  0.2-  0.2+    020115 568  0.1+  0.3-
011211 568  0.0   0.2+    020108 568  0.2+  0.1-    020210 568  0.0   0.0
011211 568  0.2+  0.3-    020108 568  0.4-  0.1+    020210 568  0.0   0.1+
011218 568  0.0   0.1+    020115 568  0.2+  0.0

S/2001 J 3
Epoch 2002 May 6.0 TT = JDT 2452400.5                   MPC
M 272.85228              (2000.0)            P               Q
n   0.57257021     Peri.  303.77362     +0.71206376     +0.69078327
a   0.1414338      Node   345.94251     +0.68029762     -0.72306186
e   0.2832192      Incl.  148.85329     -0.17366734     -0.00008939
P   1.72           H   15.4           P/d   628.74
Residuals in seconds of arc
011209 568  0.4+  0.0     020108 568  0.6+  0.0     020210 568  0.0   0.2-
011209 568  0.1+  0.2+    020108 568  0.4+  0.0     020312 568  0.0   0.1+
011209 568  0.2+  0.0     020115 568  0.0   0.1-    020312 568  0.1+  0.1+
011217 568  0.3-  0.2-    020115 568  0.4-  0.0
011217 568  0.8-  0.0     020210 568  0.2-  0.0

S/2001 J 4
Epoch 2002 May 6.0 TT = JDT 2452400.5                   MPC
M 337.60400              (2000.0)            P               Q
n   0.49664127     Peri.  246.42089     +0.40027788     +0.82566409
a   0.1555048      Node   306.62757     +0.91092953     -0.40580294
e   0.3145037      Incl.  150.30473     -0.09992505     -0.39192191
P   1.98           H   16.2           P/d   724.87
Residuals in seconds of arc
011209 568  0.1+  0.1+    011218 568  0.1+  0.2-    020210 568  0.1+  0.0
011209 568  0.1+  0.1+    020108 568  0.2+  0.0     020210 568  0.1-  0.1-
011209 568  0.0   0.1+    020108 568  0.4+  0.1+
011218 568  0.4-  0.1-    020116 568  0.5-  0.0

S/2001 J 5
Epoch 2002 May 6.0 TT = JDT 2452400.5                   MPC
M 204.18305              (2000.0)            P               Q
n   0.52044819     Peri.   90.39416     +0.71545837     +0.61670364
a   0.1507257      Node   128.43387     +0.34612664     -0.72108589
e   0.5188893      Incl.  155.21973     +0.60689017     -0.31577171
P   1.89           H   16.5           P/d   691.71
Residuals in seconds of arc
011209 568  0.0   0.1+    011219 568  0.6-  0.1-    020108 568  0.1-  0.0
011209 568  0.0   0.0     011219 568  0.7+  0.0     020210 568  0.1-  0.1-
011209 568  0.0   0.1-    020108 568  0.0   0.0     020210 568  0.1+  0.1+

S/2001 J 6
Epoch 2002 May 6.0 TT = JDT 2452400.5                   MPC
M 257.05671              (2000.0)            P               Q
n   0.54149416     Peri.  267.26665     +0.31035517     +0.94555839
a   0.1467945      Node   338.38536     +0.94310256     -0.29332470
e   0.2643925      Incl.  164.57520     +0.11931987     -0.14099630
P   1.82           H   16.8           P/d   664.83
Residuals in seconds of arc
011211 568  0.1+  0.0     011219 568  0.0   0.0     020108 568  0.1+  0.1-
011211 568  0.2+  0.0     011219 568  0.5-  0.0     020210 568  0.1-  0.0
011211 568  0.0   0.1+    020108 568  0.1+  0.1-    020210 568  0.1+  0.0

S/2001 J 7
Epoch 2002 May 6.0 TT = JDT 2452400.5                   MPC
M 153.82902              (2000.0)            P               Q
n   0.60424607     Peri.  291.93359     +0.75987979     -0.36622000
a   0.1364467      Node   266.79705     -0.18377077     -0.91352817
e   0.2078498      Incl.  147.45715     -0.62354712     -0.17705703
P   1.63           H   16.3           P/d   595.78
Residuals in seconds of arc
011211 568  0.1+  0.1+    011219 568  0.3-  0.0     020108 568  0.2-  0.1+
011211 568  0.0   0.1+    011219 568  0.4+  0.0     020211 568  0.1-  0.1-
011211 568  0.1-  0.2-    020108 568  0.1+  0.1-    020211 568  0.1+  0.1+

S/2001 J 8
Epoch 2002 May 6.0 TT = JDT 2452400.5                   MPC
M 282.23448              (2000.0)            P               Q
n   0.48708503     Peri.   39.95997     +0.92177796     +0.32591575
a   0.1575321      Node    60.18399     +0.26404048     -0.92431977
e   0.3292428      Incl.  165.99235     +0.28391552     -0.19852426
P   2.02           H   16.4           P/d   739.09
Residuals in seconds of arc
011209 568  0.1-  0.1+    020108 568  0.1+  0.5+    020211 568  0.1-  0.1-
011209 568  0.0   0.0     020108 568  0.1+  0.4+    020211 568  0.1+  0.1-
011219 568  0.2+  0.2-    020109 568  0.3-  0.1-
011219 568  0.0   0.1-    020109 568  0.0   0.4-

S/2001 J 9
Epoch 2002 May 6.0 TT = JDT 2452400.5                   MPC
M 328.64703              (2000.0)            P               Q
n   0.58531683     Peri.  224.19304     +0.89781336     -0.19622210
a   0.1393729      Node   218.69270     +0.19870507     -0.61842017
e   0.2862675      Incl.  140.90225     -0.39299804     -0.76095557
P   1.68           H   16.6           P/d   615.05
Residuals in seconds of arc
011211 568  0.1-  0.2+    011219 568  0.5-  0.1-    020108 568  0.1+  0.0
011211 568  0.1+  0.1-    011219 568  0.2+  0.1-    020312 568  0.1-  0.0
011211 568  0.2+  0.0     020108 568  0.0   0.0     020312 568  0.1+  0.0

S/2001 J 10
Epoch 2002 May 6.0 TT = JDT 2452400.5                   MPC
M 284.20211              (2000.0)            P               Q
n   0.64668125     Peri.   77.53711     +0.83121680     -0.22753104
a   0.1304104      Node    66.32476     -0.33330753     -0.93420710
e   0.1013045      Incl.  146.36697     +0.44495475     -0.27474847
P   1.52           H   16.4           P/d   556.69
Residuals in seconds of arc
011211 568  0.1-  0.1-    011218 568  0.4-  0.2+    020108 568  0.1-  0.0
011211 568  0.2-  0.0     011218 568  1.2+  0.1+    020211 568  0.2-  0.0
011211 568  0.2-  0.0     020108 568  0.2-  0.0     020211 568  0.3+  0.0

S/2001 J 11
Epoch 2002 May 6.0 TT = JDT 2452400.5                   MPC
M 142.03449              (2000.0)            P               Q
n   0.46547435     Peri.  126.38382     -0.33807262     -0.93817194
a   0.1623710      Node    17.09322     -0.92405287     +0.34589586
e   0.2018810      Incl.  165.33086     -0.17841862     -0.01376432
P   2.12           H   16.0           P/d   773.40
Residuals in seconds of arc
011209 568  0.3-  0.3-    020108 568  0.1-  0.2+    020210 568  0.1+  0.1+
011209 568  0.4-  0.3-    020108 568  0.2+  0.2+    020210 568  0.0   0.2-
011219 568  1.0+  0.3+    020116 568  0.5-  0.1-
011219 568  0.0   0.2+    020116 568  0.0   0.2-

Brian G. Marsden             (C) Copyright 2002 MPC           M.P.E.C. 2002-J54

Read MPEC 2002-J53 Read MPEC 2002-K01


MPEC number:

Enter an MPEC number in one of the following forms:

  • 1997-B01 (the full form)
  • J97B01 (the packed version of the full form)
  • B01 (the abbreviated form)

